owner,sensor,date,latitude,longitude,vertical_datum,sea_water_temperature,qcFlag 
CenGOOS,ioos:station:wmo:42067:1,2015-06-01T08:40Z,30.0430,-88.6490,-1.4,28.2,2 
CenGOOS,ioos:station:wmo:42067:1,2015-06-01T17:40Z,30.0430,-88.6490,-1.4,29.0,2 
CenGOOS,ioos:station:wmo:42067:1,2015-06-02T02:40Z,30.0430,-88.6490,-1.4,28.9,2 
CenGOOS,ioos:station:wmo:42067:1,2015-06-02T05:40Z,30.0430,-88.6490,-1.4,28.6,2 
CenGOOS,ioos:station:wmo:42067:1,2015-06-02T08:40Z,30.0430,-88.6490,-1.4,28.3,2 
CenGOOS,ioos:station:wmo:42067:1,2015-06-02T11:40Z,30.0430,-88.6490,-1.4,28.1,2 
CenGOOS,ioos:station:wmo:42067:1,2015-06-05T13:40Z,30.0430,-88.6490,-1.4,29.8,2 
CenGOOS,ioos:station:wmo:42067:1,2015-06-05T17:40Z,30.0430,-88.6490,-1.4,30.8,2 
CenGOOS,ioos:station:wmo:42067:1,2015-06-05T20:40Z,30.0430,-88.6490,-1.4,31.9,2 
CenGOOS,ioos:station:wmo:42067:1,2015-06-05T23:40Z,30.0430,-88.6490,-1.4,31.5,2 
CenGOOS,ioos:station:wmo:42067:1,2015-06-06T02:40Z,30.0430,-88.6490,-1.4,30.6,2 
CenGOOS,ioos:station:wmo:42067:1,2015-06-06T08:40Z,30.0430,-88.6490,-1.4,30.1,2 
CenGOOS,ioos:station:wmo:42067:1,2015-06-06T11:40Z,30.0430,-88.6490,-1.4,29.8,2 
CenGOOS,ioos:station:wmo:42067:1,2015-06-06T14:40Z,30.0430,-88.6490,-1.4,30.1,2 
CenGOOS,ioos:station:wmo:42067:1,2015-06-06T17:40Z,30.0430,-88.6490,-1.4,30.8,2 
CenGOOS,ioos:station:wmo:42067:1,2015-06-06T20:40Z,30.0430,-88.6490,-1.4,31.3,2 
CenGOOS,ioos:station:wmo:42067:1,2015-06-06T23:40Z,30.0430,-88.6490,-1.4,31.3,2 
CenGOOS,ioos:station:wmo:42067:1,2015-06-07T02:40Z,30.0430,-88.6490,-1.4,31.3,2 
CenGOOS,ioos:station:wmo:42067:1,2015-06-07T05:40Z,30.0430,-88.6490,-1.4,30.5,2 
CenGOOS,ioos:station:wmo:42067:1,2015-06-07T11:40Z,30.0430,-88.6490,-1.4,29.9,2 
CenGOOS,ioos:station:wmo:42067:1,2015-06-07T14:40Z,30.0430,-88.6490,-1.4,30.2,2 
CenGOOS,ioos:station:wmo:42067:1,2015-06-07T17:40Z,30.0430,-88.6490,-1.4,30.7,2 
CenGOOS,ioos:station:wmo:42067:1,2015-06-07T20:40Z,30.0430,-88.6490,-1.4,30.9,2 
CenGOOS,ioos:station:wmo:42067:1,2015-06-07T23:40Z,30.0430,-88.6490,-1.4,30.4,2 
CenGOOS,ioos:station:wmo:42067:1,2015-06-08T08:40Z,30.0430,-88.6490,-1.4,30.0,2 
CenGOOS,ioos:station:wmo:42067:1,2015-06-08T11:40Z,30.0430,-88.6490,-1.4,29.5,2 
CenGOOS,ioos:station:wmo:42067:1,2015-06-08T14:40Z,30.0430,-88.6490,-1.4,30.1,2 
CenGOOS,ioos:station:wmo:42067:1,2015-06-08T17:40Z,30.0430,-88.6490,-1.4,30.8,2 
CenGOOS,ioos:station:wmo:42067:1,2015-06-08T20:40Z,30.0430,-88.6490,-1.4,31.2,2 
CenGOOS,ioos:station:wmo:42067:1,2015-06-08T23:40Z,30.0430,-88.6490,-1.4,30.9,2 
CenGOOS,ioos:station:wmo:42067:1,2015-06-09T02:40Z,30.0430,-88.6490,-1.4,30.4,2 
CenGOOS,ioos:station:wmo:42067:1,2015-06-09T05:40Z,30.0430,-88.6490,-1.4,30.0,2 
CenGOOS,ioos:station:wmo:42067:1,2015-06-09T08:40Z,30.0430,-88.6490,-1.4,30.1,2 
CenGOOS,ioos:station:wmo:42067:1,2015-06-09T11:40Z,30.0430,-88.6490,-1.4,29.7,2 
CenGOOS,ioos:station:wmo:42067:1,2015-06-09T14:40Z,30.0430,-88.6490,-1.4,29.6,2 
CenGOOS,ioos:station:wmo:42067:1,2015-06-09T17:40Z,30.0430,-88.6490,-1.4,29.4,2 
CenGOOS,ioos:station:wmo:42067:1,2015-06-09T20:40Z,30.0430,-88.6490,-1.4,29.4,2 
CenGOOS,ioos:station:wmo:42067:1,2015-06-09T23:40Z,30.0430,-88.6490,-1.4,29.5,2 
CenGOOS,ioos:station:wmo:42067:1,2015-06-10T02:40Z,30.0430,-88.6490,-1.4,29.3,2 
CenGOOS,ioos:station:wmo:42067:1,2015-06-10T05:40Z,30.0430,-88.6490,-1.4,29.0,2 
CenGOOS,ioos:station:wmo:42067:1,2015-06-10T08:40Z,30.0430,-88.6490,-1.4,28.6,2 
CenGOOS,ioos:station:wmo:42067:1,2015-06-10T14:40Z,30.0430,-88.6490,-1.4,28.7,2 
CenGOOS,ioos:station:wmo:42067:1,2015-06-10T17:40Z,30.0430,-88.6490,-1.4,28.8,2 
CenGOOS,ioos:station:wmo:42067:1,2015-06-10T20:40Z,30.0430,-88.6490,-1.4,29.6,2 
CenGOOS,ioos:station:wmo:42067:1,2015-06-10T23:40Z,30.0430,-88.6490,-1.4,29.7,2 
CenGOOS,ioos:station:wmo:42067:1,2015-06-11T02:40Z,30.0430,-88.6490,-1.4,29.3,2 
CenGOOS,ioos:station:wmo:42067:1,2015-06-11T05:40Z,30.0430,-88.6490,-1.4,29.0,2 
CenGOOS,ioos:station:wmo:42067:1,2015-06-11T08:40Z,30.0430,-88.6490,-1.4,29.1,2 
CenGOOS,ioos:station:wmo:42067:1,2015-06-11T11:40Z,30.0430,-88.6490,-1.4,29.0,2 
CenGOOS,ioos:station:wmo:42067:1,2015-06-11T14:40Z,30.0430,-88.6490,-1.4,29.1,2 
CenGOOS,ioos:station:wmo:42067:1,2015-06-11T17:40Z,30.0430,-88.6490,-1.4,29.3,2 
CenGOOS,ioos:station:wmo:42067:1,2015-06-11T20:40Z,30.0430,-88.6490,-1.4,30.0,2 
CenGOOS,ioos:station:wmo:42067:1,2015-06-12T02:40Z,30.0430,-88.6490,-1.4,29.4,2 
CenGOOS,ioos:station:wmo:42067:1,2015-06-12T05:40Z,30.0430,-88.6490,-1.4,29.1,2 
CenGOOS,ioos:station:wmo:42067:1,2015-06-12T08:40Z,30.0430,-88.6490,-1.4,28.9,2 
CenGOOS,ioos:station:wmo:42067:1,2015-06-12T11:40Z,30.0430,-88.6490,-1.4,28.7,2 
CenGOOS,ioos:station:wmo:42067:1,2015-06-12T14:40Z,30.0430,-88.6490,-1.4,28.9,2 
CenGOOS,ioos:station:wmo:42067:1,2015-06-12T17:40Z,30.0430,-88.6490,-1.4,29.0,2 
CenGOOS,ioos:station:wmo:42067:1,2015-06-12T20:40Z,30.0430,-88.6490,-1.4,29.2,2 
CenGOOS,ioos:station:wmo:42067:1,2015-06-12T23:40Z,30.0430,-88.6490,-1.4,29.0,2 
CenGOOS,ioos:station:wmo:42067:1,2015-06-13T02:40Z,30.0430,-88.6490,-1.4,28.9,2 
CenGOOS,ioos:station:wmo:42067:1,2015-06-13T05:40Z,30.0430,-88.6490,-1.4,29.0,2 
CenGOOS,ioos:station:wmo:42067:1,2015-06-13T08:40Z,30.0430,-88.6490,-1.4,29.0,2 
CenGOOS,ioos:station:wmo:42067:1,2015-06-13T14:40Z,30.0430,-88.6490,-1.4,29.0,2 
CenGOOS,ioos:station:wmo:42067:1,2015-06-13T17:40Z,30.0430,-88.6490,-1.4,29.2,2 
CenGOOS,ioos:station:wmo:42067:1,2015-06-13T20:40Z,30.0430,-88.6490,-1.4,29.1,2 
CenGOOS,ioos:station:wmo:42067:1,2015-06-13T23:40Z,30.0430,-88.6490,-1.4,29.0,2 
CenGOOS,ioos:station:wmo:42067:1,2015-06-14T02:40Z,30.0430,-88.6490,-1.4,28.8,2 
CenGOOS,ioos:station:wmo:42067:1,2015-06-14T05:40Z,30.0430,-88.6490,-1.4,28.6,2 
CenGOOS,ioos:station:wmo:42067:1,2015-06-14T11:40Z,30.0430,-88.6490,-1.4,28.4,2 
CenGOOS,ioos:station:wmo:42067:1,2015-06-14T14:40Z,30.0430,-88.6490,-1.4,28.4,2 
CenGOOS,ioos:station:wmo:42067:1,2015-06-14T17:40Z,30.0430,-88.6490,-1.4,28.5,2 
CenGOOS,ioos:station:wmo:42067:1,2015-06-14T20:40Z,30.0430,-88.6490,-1.4,28.6,2 
CenGOOS,ioos:station:wmo:42067:1,2015-06-15T02:40Z,30.0430,-88.6490,-1.4,28.7,2 
CenGOOS,ioos:station:wmo:42067:1,2015-06-15T05:40Z,30.0430,-88.6490,-1.4,28.5,2 
CenGOOS,ioos:station:wmo:42067:1,2015-06-15T08:40Z,30.0430,-88.6490,-1.4,28.4,2 
CenGOOS,ioos:station:wmo:42067:1,2015-06-15T11:40Z,30.0430,-88.6490,-1.4,28.4,2 
CenGOOS,ioos:station:wmo:42067:1,2015-06-16T11:40Z,30.0430,-88.6490,-1.4,28.4,2 
CenGOOS,ioos:station:wmo:42067:1,2015-06-16T14:40Z,30.0430,-88.6490,-1.4,28.7,2 
CenGOOS,ioos:station:wmo:42067:1,2015-06-16T17:40Z,30.0430,-88.6490,-1.4,29.2,2 
CenGOOS,ioos:station:wmo:42067:1,2015-06-16T20:40Z,30.0430,-88.6490,-1.4,29.8,2 
CenGOOS,ioos:station:wmo:42067:1,2015-06-16T23:40Z,30.0430,-88.6490,-1.4,29.9,2 
CenGOOS,ioos:station:wmo:42067:1,2015-06-17T02:40Z,30.0430,-88.6490,-1.4,29.5,2 
CenGOOS,ioos:station:wmo:42067:1,2015-06-17T05:40Z,30.0430,-88.6490,-1.4,29.3,2 
CenGOOS,ioos:station:wmo:42067:1,2015-06-17T08:40Z,30.0430,-88.6490,-1.4,29.1,2 
CenGOOS,ioos:station:wmo:42067:1,2015-06-17T11:40Z,30.0430,-88.6490,-1.4,28.9,2 
CenGOOS,ioos:station:wmo:42067:1,2015-06-17T14:40Z,30.0430,-88.6490,-1.4,29.3,2 
CenGOOS,ioos:station:wmo:42067:1,2015-06-17T20:40Z,30.0430,-88.6490,-1.4,30.7,2 
CenGOOS,ioos:station:wmo:42067:1,2015-06-17T23:40Z,30.0430,-88.6490,-1.4,30.6,2 
CenGOOS,ioos:station:wmo:42067:1,2015-06-18T02:40Z,30.0430,-88.6490,-1.4,30.2,2 
CenGOOS,ioos:station:wmo:42067:1,2015-06-18T05:40Z,30.0430,-88.6490,-1.4,29.8,2 
CenGOOS,ioos:station:wmo:42067:1,2015-06-18T08:40Z,30.0430,-88.6490,-1.4,29.4,2 
CenGOOS,ioos:station:wmo:42067:1,2015-06-18T11:40Z,30.0430,-88.6490,-1.4,29.3,2 
CenGOOS,ioos:station:wmo:42067:1,2015-06-18T14:40Z,30.0430,-88.6490,-1.4,29.6,2 
CenGOOS,ioos:station:wmo:42067:1,2015-06-18T17:40Z,30.0430,-88.6490,-1.4,30.3,2 
CenGOOS,ioos:station:wmo:42067:1,2015-06-18T20:40Z,30.0430,-88.6490,-1.4,30.9,2 
CenGOOS,ioos:station:wmo:42067:1,2015-06-18T23:40Z,30.0430,-88.6490,-1.4,30.4,2 
CenGOOS,ioos:station:wmo:42067:1,2015-06-19T02:40Z,30.0430,-88.6490,-1.4,30.0,2 
CenGOOS,ioos:station:wmo:42067:1,2015-06-19T05:40Z,30.0430,-88.6490,-1.4,29.8,2 
CenGOOS,ioos:station:wmo:42067:1,2015-06-19T08:40Z,30.0430,-88.6490,-1.4,29.7,2 
CenGOOS,ioos:station:wmo:42067:1,2015-06-19T11:40Z,30.0430,-88.6490,-1.4,29.4,2 
CenGOOS,ioos:station:wmo:42067:1,2015-06-19T14:40Z,30.0430,-88.6490,-1.4,29.4,2 
CenGOOS,ioos:station:wmo:42067:1,2015-06-19T17:40Z,30.0430,-88.6490,-1.4,29.9,2 
CenGOOS,ioos:station:wmo:42067:1,2015-06-19T20:40Z,30.0430,-88.6490,-1.4,31.0,2 
CenGOOS,ioos:station:wmo:42067:1,2015-06-19T23:40Z,30.0430,-88.6490,-1.4,30.9,2 
CenGOOS,ioos:station:wmo:42067:1,2015-06-20T05:40Z,30.0430,-88.6490,-1.4,30.1,2 
CenGOOS,ioos:station:wmo:42067:1,2015-06-20T08:40Z,30.0430,-88.6490,-1.4,29.9,2 
CenGOOS,ioos:station:wmo:42067:1,2015-06-20T11:40Z,30.0430,-88.6490,-1.4,29.7,2 
CenGOOS,ioos:station:wmo:42067:1,2015-06-20T14:40Z,30.0430,-88.6490,-1.4,29.8,2 
CenGOOS,ioos:station:wmo:42067:1,2015-06-20T17:40Z,30.0430,-88.6490,-1.4,30.4,2 
CenGOOS,ioos:station:wmo:42067:1,2015-06-20T23:40Z,30.0430,-88.6490,-1.4,30.9,2 
CenGOOS,ioos:station:wmo:42067:1,2015-06-26T08:40Z,30.0430,-88.6490,-1.4,29.5,2 
CenGOOS,ioos:station:wmo:42067:1,2015-06-26T11:40Z,30.0430,-88.6490,-1.4,29.4,2 
CenGOOS,ioos:station:wmo:42067:1,2015-06-26T14:40Z,30.0430,-88.6490,-1.4,29.5,2 
CenGOOS,ioos:station:wmo:42067:1,2015-06-26T17:40Z,30.0430,-88.6490,-1.4,30.1,2 
CenGOOS,ioos:station:wmo:42067:1,2015-06-26T20:40Z,30.0430,-88.6490,-1.4,30.3,2 
CenGOOS,ioos:station:wmo:42067:1,2015-06-27T02:40Z,30.0430,-88.6490,-1.4,29.8,2 
CenGOOS,ioos:station:wmo:42067:1,2015-06-27T05:40Z,30.0430,-88.6490,-1.4,29.8,2 
CenGOOS,ioos:station:wmo:42067:1,2015-06-27T08:40Z,30.0430,-88.6490,-1.4,29.3,2 
CenGOOS,ioos:station:wmo:42067:1,2015-06-27T11:40Z,30.0430,-88.6490,-1.4,28.9,2 
CenGOOS,ioos:station:wmo:42067:1,2015-06-27T17:40Z,30.0430,-88.6490,-1.4,29.1,2 
CenGOOS,ioos:station:wmo:42067:1,2015-06-27T20:40Z,30.0430,-88.6490,-1.4,29.2,2 
CenGOOS,ioos:station:wmo:42067:1,2015-06-27T23:40Z,30.0430,-88.6490,-1.4,29.4,2 
CenGOOS,ioos:station:wmo:42067:1,2015-06-28T05:40Z,30.0430,-88.6490,-1.4,28.8,2 
CenGOOS,ioos:station:wmo:42067:1,2015-06-28T08:40Z,30.0430,-88.6490,-1.4,28.7,2 
CenGOOS,ioos:station:wmo:42067:1,2015-06-28T11:40Z,30.0430,-88.6490,-1.4,28.7,2 
CenGOOS,ioos:station:wmo:42067:1,2015-06-28T14:40Z,30.0430,-88.6490,-1.4,28.6,2 
CenGOOS,ioos:station:wmo:42067:1,2015-06-28T17:40Z,30.0430,-88.6490,-1.4,28.7,2 
CenGOOS,ioos:station:wmo:42067:1,2015-06-28T20:40Z,30.0430,-88.6490,-1.4,28.6,2 
CenGOOS,ioos:station:wmo:42067:1,2015-06-29T02:40Z,30.0430,-88.6490,-1.4,28.5,2 
CenGOOS,ioos:station:wmo:42067:1,2015-06-29T05:40Z,30.0430,-88.6490,-1.4,28.3,2 
CenGOOS,ioos:station:wmo:42067:1,2015-06-29T08:40Z,30.0430,-88.6490,-1.4,28.2,2 
CenGOOS,ioos:station:wmo:42067:1,2015-06-29T11:40Z,30.0430,-88.6490,-1.4,28.2,2 
CenGOOS,ioos:station:wmo:42067:1,2015-06-29T14:40Z,30.0430,-88.6490,-1.4,28.3,2 
CenGOOS,ioos:station:wmo:42067:1,2015-06-29T17:40Z,30.0430,-88.6490,-1.4,28.4,2 
CenGOOS,ioos:station:wmo:42067:1,2015-06-29T20:40Z,30.0430,-88.6490,-1.4,29.3,2 
CenGOOS,ioos:station:wmo:42067:1,2015-06-29T23:40Z,30.0430,-88.6490,-1.4,28.8,2 
CenGOOS,ioos:station:wmo:42067:1,2015-06-30T02:40Z,30.0430,-88.6490,-1.4,28.6,2 
CenGOOS,ioos:station:wmo:42067:1,2015-06-30T05:40Z,30.0430,-88.6490,-1.4,28.6,2 
CenGOOS,ioos:station:wmo:42067:1,2015-06-30T08:40Z,30.0430,-88.6490,-1.4,28.5,2 
CenGOOS,ioos:station:wmo:42067:1,2015-06-30T11:40Z,30.0430,-88.6490,-1.4,28.4,2 
CenGOOS,ioos:station:wmo:42067:1,2015-06-30T14:40Z,30.0430,-88.6490,-1.4,28.6,2 
CenGOOS,ioos:station:wmo:42067:1,2015-06-30T17:40Z,30.0430,-88.6490,-1.4,29.2,2 
CenGOOS,ioos:station:wmo:42067:1,2015-06-30T23:40Z,30.0430,-88.6490,-1.4,29.2,2 
 
DISCLAIMER: The Gulf of Mexico Coastal and Ocean Observing (GCOOS) Data Portal aggregates data from the regional data providers for the convenience of all data users. Data published on this website should not be used for navigation or certain other uses as we cannot guarantee data accuracy or availability. The data and delivery services are provided 'as is' without warranty of any kind. Data Source: Gulf of Mexico Coastal Ocean Observing System Data Portal (http://data.gcoos.org/) 
